Flag for U.S.A. Weather past 2 weeks in Glendale, Arizona, U.S.A.

Now
90 °F

Passing clouds.


Feels Like: 87 °F
Forecast: 66 / 91 °F
Wind: No wind

Location: Phoenix-Deer Valley Municipal Airport

Current Time: Oct 25, 2014 at 3:09:37 PM

Latest Report: Oct 25, 2014 at 1:53 PM


Visibility: 10 mi

Pressure: 29.90 "Hg

Humidity: 23%

Dew point: 47 °F

Location of GlendaleLocation

Historic Weather in Glendale — Graph

°F

Glendale temperature yesterday

Maximum temperature yesterday: 92 °F (at 3:53 PM)
Minimum temperature yesterday: 69 °F (at 1:53 AM)
Average temperature yesterday: 79 °F

Past Weeks' High & Low Weather Summary

 TemperatureHumidityPressure
High92 °F (Oct 24, 3:53 PM)78% (Oct 20, 4:53 AM)30.01 "Hg (Oct 20, 4:53 AM)
Low63 °F (Oct 13, 5:53 AM)9% (Oct 13, 1:53 PM)29.68 "Hg (Oct 19, 3:53 PM)
Average77 °F35%29.85 "Hg
* Reported Oct 10 12:53 PM — Oct 25 12:53 PM, Glendale, Weather by CustomWeather, © 2014

Note: Actual official high and low records may vary slightly from our data, if they occured in-between our weather recording intervals... More about our weather records

Advertising

Glendale weather history for previous 24 hours

 ConditionsComfort  
Time TempWeatherWind HumidityBarometerVisibility
12:53 PM
Oct 25
90 °FPartly sunny.8 mph24%29.92 "Hg10 mi
11:53 AM87 °FSunny.No wind24%29.94 "Hg10 mi
10:53 AM84 °FSunny.No wind26%29.96 "Hg10 mi
9:53 AM81 °FPassing clouds.No wind33%29.98 "Hg10 mi
8:53 AM76 °FPartly sunny.3 mph37%29.99 "Hg10 mi
7:53 AM74 °FPartly sunny.3 mph37%29.98 "Hg10 mi
6:53 AM68 °FSunny.No wind47%29.95 "Hg10 mi
5:53 AM69 °FClear.3 mph44%29.94 "Hg10 mi
4:53 AM70 °FClear.No wind42%29.93 "Hg10 mi
3:53 AM72 °FClear.7 mph38%29.93 "Hg10 mi
2:53 AM71 °FClear.No wind41%29.93 "Hg10 mi
1:53 AM73 °FClear.No wind37%29.94 "Hg10 mi
12:53 AM76 °FClear.9 mph33%29.93 "Hg10 mi
11:53 PM
Oct 24
76 °FClear.12 mph33%29.93 "Hg10 mi
10:53 PM77 °FClear.13 mph32%29.93 "Hg10 mi
9:53 PM77 °FClear.No wind33%29.94 "Hg10 mi
8:53 PM79 °FClear.7 mph30%29.93 "Hg10 mi
7:53 PM76 °FClear.No wind37%29.92 "Hg10 mi
6:53 PM84 °FClear.No wind26%29.91 "Hg10 mi
5:53 PM88 °FClear.No wind22%29.89 "Hg10 mi
4:53 PM91 °FSunny.3 mph19%29.88 "Hg10 mi
3:53 PM92 °FSunny.No wind18%29.89 "Hg10 mi
Weather by CustomWeather, © 2014

See weather overviewHow to use our weather pages